• Join FlightAware (Why Join?)
  • Login
  • US Flag GB Flag 
22:57 EDT


 

Airport Tracker/Info


-or-


 

Live Flight TrackerFlight Track Log ✈ DAL6234 ✈ 17-Apr-2013 ✈ KSYR - KLGA

Flight Track Log - Related Links

Times and Time Zones

All times are in EDT time to prevent confusion due to time zone crossing. See the DAL6234 flight status page for this flight to view local times or setup timezone preferences in your user account.

Time Position Orientation Groundspeed Altitude Reporting Facility
EDT Latitude Longitude Course Direction KTS MPH feet Rate Location/Type
18:05 43.1075 -76.1347 250° West 159 183 1,100  Level Boston Center
18:06 43.0908 -76.1964 250° West 204 235 3,400 2,280 Climbing Boston Center
18:07 43.0239 -76.1439 150° Southeast 235 270 6,200 2,400 Climbing Boston Center
18:08 42.9703 -76.0583 131° Southeast 264 304 8,700 2,340 Climbing Boston Center
18:09 42.9128 -75.9642 130° Southeast 292 336 11,000 1,740 Climbing Boston Center
18:10 42.8431 -75.8525 130° Southeast 339 390 12,300 1,920 Climbing Boston Center
18:11 42.7717 -75.7328 129° Southeast 385 443 14,800 2,760 Climbing Boston Center
18:12 42.7019 -75.6214 130° Southeast 397 457 17,800 1,560 Climbing Boston Center
18:13 42.6319 -75.5078 130° Southeast 397 457 18,000 60 Climbing Boston Center
18:14 42.5619 -75.4000 131° Southeast 397 457 18,000  Level Boston Center
18:15 42.4919 -75.2842 129° Southeast 397 457 18,000  Level Boston Center
18:16 42.4364 -75.1633 122° Southeast 397 457 18,000  Level Boston Center
18:17 42.3894 -75.0347 116° Southeast 392 451 18,000  Level Boston Center
18:18 42.3422 -74.9064 116° Southeast 385 443 18,000  Level Boston Center
18:19 42.2950 -74.7783 116° Southeast 375 432 18,000  Level Boston Center
18:20 42.2475 -74.6531 117° Southeast 375 432 18,000  Level Boston Center
18:21 42.2039 -74.5339 116° Southeast 380 437 18,000  Level Boston Center
18:22 42.1564 -74.4006 116° Southeast 380 437 18,000  Level Boston Center
18:23 42.1003 -74.2589 118° Southeast 385 443 18,000  Level Boston Center
18:24 42.0478 -74.1511 123° Southeast 395 455 18,000  Level Boston Center
18:25 41.9850 -74.0294 125° Southeast 395 455 18,000  Level Boston Center
18:26 41.9219 -73.9050 124° Southeast 381 438 18,000  Level Boston Center
18:27 41.8711 -73.8006 123° Southeast 371 427 18,000 -840 Level Boston Center
18:28 41.7864 -73.7375 151° Southeast 328 377 16,400 -1,740 Descending Boston Center
18:29 41.7069 -73.7664 195° South 292 336 14,500 -1,680 Descending Boston Center
18:30 41.6131 -73.7867 189° South 310 357 13,100 -1,440 Descending Boston Center
18:31 41.5500 -73.7833 178° South 315 362 12,100 -1,380 Descending New York TRACON
18:32 41.4667 -73.8000 189° South 296 341 10,700 -1,440 Descending New York TRACON
18:33 41.3833 -73.8000 180° South 294 338 9,300 -1,200 Descending New York TRACON
18:34 41.3000 -73.7667 163° South 314 361 8,500 -960 Descending New York TRACON
18:35 41.2333 -73.7000 143° Southeast 311 358 7,500 -960 Descending New York TRACON
18:36 41.1667 -73.6333 143° Southeast 305 351 6,500 -1,020 Descending New York TRACON
18:37 41.1000 -73.5833 151° Southeast 261 300 5,500 -960 Descending New York TRACON
18:38 41.0333 -73.5500 159° South 206 237 4,600 -720 Descending New York TRACON
18:39 41.0000 -73.5833 217° Southwest 197 227 4,100 -300 Descending New York TRACON
18:40 40.9833 -73.6500 252° West 194 223 4,000 -60 Descending New York TRACON
18:41 40.9667 -73.7167 252° West 193 222 4,000  Level New York TRACON
18:42 40.9500 -73.7833 252° West 191 220 4,000  Level New York TRACON
18:43 40.9167 -73.8333 229° Southwest 198 228 4,100  Climbing New York TRACON
18:44 40.8833 -73.9000 237° Southwest 230 265 4,000 -60 Descending New York TRACON
18:45 40.8167 -73.9667 217° Southwest 229 264 4,000  Level New York TRACON
18:46 40.7667 -74.0000 207° Southwest 234 269 4,100 -420 Climbing New York TRACON
18:47 40.7167 -74.0333 207° Southwest 230 265 3,300 -720 Descending New York TRACON
18:48 40.6833 -74.0000 143° Southeast 192 221 2,800 -840 Descending New York TRACON
18:49 40.7000 -73.9333 72° East 168 193 1,600 -1,140 Descending New York TRACON